Location: *
(44.3683°N, 6.6958°E)
Time: 07:43:43
(UTC+00:00)

Cosmos 1802 Rocket - Pass Details

Date: 14 October 2019
Orbit: 954 x 1011 km, 82.9° (Epoch: 21 November)

Event Time Altitude Azimuth Distance (km) Brightness Sun altitude
Rises 19:30:50 0° 352° (N) 3,755 7.4 -29.0°
Reaches altitude 10° 19:33:24 10° 354° (N) 2,802 6.6 -29.4°
Enters shadow 19:38:55 65° 18° (NNE) 1,107 4.1 -30.4°
